Bryce Canyon, UT

3:38 AM MST on December 16, 2019 (GMT -0700)
Bryce Canyon

Weather History for KBCE - October, 2019

Change the Weather History Date:

Tuesday, October 8, 2019

  Actual Average Record
Temperature  
Mean Temperature 49 °F -  
Max Temperature 70 °F 61 °F 77 °F (1979)
Min Temperature 28 °F 28 °F 15 °F (1975)
Degree Days  
Heating Degree Days 16    
Moisture  
Dew Point 14 °F    
Average Humidity 27    
Maximum Humidity 47    
Minimum Humidity 12    
Precipitation  
Precipitation 0.00 in - - ()
Sea Level Pressure  
Sea Level Pressure 29.90 in    
Wind  
Wind Speed 7 mph (SW)    
Max Wind Speed 15 mph    
Max Gust Speed 21 mph    
Visibility 10 miles    
Events      
Averages and records for this station are not official NWS values.
T = Trace of Precipitation, MM = Missing Value Source: NWS Daily Summary

Daily Weather History Graph

Daily Weather History Graph

Search for Another Location

Airport or City:

Astronomy

Oct. 08, 2019 Rise Set
Actual Time 7:30 AM MDT 7:01 PM MDT
Civil Twilight 7:04 AM MDT 7:27 PM MDT
Nautical Twilight 6:33 AM MDT 7:57 PM MDT
Astronomical Twilight 6:03 AM MDT 8:28 PM MDT
Moon 4:56 PM MDT (10/8) 2:30 AM MDT (10/8)
Length of Visible Light 12h 23m
Length of Day
11h 31m
Waxing Gibbous, 78% of the Moon is Illuminated
Oct 8
Waxing Gibbous
Oct 13
Full
Oct 21
Last Quarter
Oct 27
New
Nov 4
First Quarter

Hourly Weather History & Observations

Time (MDT) Temp. Windchill Dew Point Humidity Pressure Visibility Wind Dir Wind Speed Gust Speed Precip Events Conditions
12:53 AM 30.0 °F 26.5 °F 10.0 °F 43% 30.04 in 10.0 mi WSW 3.5 mph - N/A   Clear
1:53 AM 30.0 °F 25.2 °F 10.9 °F 45% 30.02 in 10.0 mi WSW 4.6 mph - N/A   Clear
2:53 AM 28.0 °F 21.7 °F 10.0 °F 47% 30.01 in 10.0 mi WSW 5.8 mph - N/A   Clear
3:53 AM 30.0 °F 25.2 °F 12.0 °F 47% 29.97 in 10.0 mi West 4.6 mph - N/A   Clear
4:53 AM 32.0 °F 26.4 °F 10.9 °F 42% 29.96 in 10.0 mi WNW 5.8 mph - N/A   Clear
5:53 AM 30.9 °F 22.2 °F 12.0 °F 46% 29.96 in 10.0 mi West 10.4 mph - N/A   Clear
6:53 AM 30.9 °F 22.8 °F 12.9 °F 47% 29.99 in 10.0 mi West 9.2 mph - N/A   Clear
7:53 AM 32.0 °F 24.8 °F 12.9 °F 45% 30.01 in 10.0 mi West 8.1 mph - N/A   Unknown
8:53 AM 42.1 °F 37.1 °F 15.1 °F 34% 30.01 in 10.0 mi West 8.1 mph - N/A   Clear
9:53 AM 55.0 °F - 16.0 °F 22% 29.98 in 10.0 mi Calm Calm - N/A   Clear
10:53 AM 63.0 °F - 16.0 °F 16% 29.95 in 10.0 mi South 4.6 mph - N/A   Clear
11:53 AM 64.0 °F - 17.1 °F 16% 29.91 in 10.0 mi SE 8.1 mph - N/A   Clear
12:53 PM 66.9 °F - 15.1 °F 14% 29.90 in 10.0 mi SSE 11.5 mph - N/A   Clear
1:53 PM 68.0 °F - 15.1 °F 13% 29.87 in 10.0 mi ESE 10.4 mph - N/A   Clear
2:53 PM 68.0 °F - 14.0 °F 12% 29.85 in 10.0 mi SE 8.1 mph 19.6 mph N/A   Clear
3:53 PM 70.0 °F - 14.0 °F 12% 29.81 in 10.0 mi SE 12.7 mph 20.7 mph N/A   Clear
4:53 PM 70.0 °F - 14.0 °F 12% 29.79 in 10.0 mi ESE 12.7 mph - N/A   Clear
5:53 PM 66.9 °F - 12.9 °F 12% 29.81 in 10.0 mi SW 12.7 mph - N/A   Clear
6:53 PM 61.0 °F - 14.0 °F 16% 29.83 in 10.0 mi WSW 10.4 mph - N/A   Clear
7:53 PM 51.1 °F - 12.9 °F 22% 29.88 in 10.0 mi WSW 8.1 mph - N/A   Clear
8:53 PM 54.0 °F - 15.1 °F 22% 29.83 in 10.0 mi WSW 15.0 mph - N/A   Clear
9:53 PM 53.1 °F - 14.0 °F 21% 29.77 in 10.0 mi SW 13.8 mph - N/A   Clear
10:53 PM 50.0 °F - 14.0 °F 24% 29.75 in 10.0 mi SW 9.2 mph - N/A   Clear
11:53 PM 48.9 °F - 14.0 °F 25% 29.74 in 10.0 mi SSW 10.4 mph - N/A   Clear